Погода в Дубовом

Россия / Тамбовская область     52°36′32″N   40°17′59″E
темп.,
°C
ветер,
м/с
пор.,
м/с
влажн.,
%
обл.,
%
осадки,
мм/ч
давл.,
гПа
погр.,
м
8 декабря, ср
ср800:00+2ююв61598100 0.0 1016523
03:00+2ююв61495100 0.0 1016415
06:00+2ююв51393100 0.0 1016360
09:00+2юв51292100 0.0 1017330
12:00+3юв51293100 0.0 1016397
15:00+2вюв3895100 0.0 1015184
18:00+1вюв3995100 0.0 1016193
21:00+1вюв4994100 0.0 1016252
9 декабря, чт
чт900:00+1вюв3896100 0.0 1016235
03:00+1в2496100 0.1 1016109
06:00+1в2297100 0.0 101641
09:00+1в2296100 0.0 101844
12:00+2св2496100 0.0 1018144
15:00+1ссв3697100 0.0 1020239
18:00+1ссв5898100 0.0 1021351
21:000ссв5994100 0.0 1022385
10 декабря, пт
пт1000:00−1ссв5893100 0.0 1024351
03:00−1ссв589198 0.0 1025357
06:00−3ссв599097 0.0 1025298
09:00−3св51089100 0.0 1027347
12:00−2св5682100 0.0 1027383
15:00−2св4782100 0.0 1028394
18:00−3св488236 0.0 1030369
21:00−4всв487932 0.0 1030336
11 декабря, сб
сб1100:00−4всв37795 0.0 1031320
03:00−4всв47805 0.0 1031283
06:00−5всв487741 0.0 1032276
09:00−5в497475 0.0 1033310
12:00−3вюв586338 0.0 1033375
15:00−2в486545 0.0 1033353
18:00−3вюв41067100 0.0 1034292
21:00−4вюв41165100 0.0 1035306
12 декабря, вс
вс1200:00−3вюв41062100 0.0 1036308
03:00−4вюв4106094 0.0 1037288
06:00−4юв4106068 0.0 1038271
09:00−5вюв5106065 0.0 1039287
12:00−3юв594915 0.0 1038372
15:00−2вюв510536 0.0 1037394
18:00−4вюв5125893 0.0 1038354
21:00−4юв61457100 0.0 1037396